Location: Gro�sch�nbrunn
(49.5760°N, 11.8868°E)
Time: 23:21:42
(UTC+00:00)

OBJECT-B - Pass Details

Date: 18 September 2020
Orbit: 421 x 433 km, 97.0° (Epoch: 09 October)

Event Time Altitude Azimuth Distance (km) Brightness Sun altitude
Exits shadow 19:01:25 49° 116° (ESE) 558 0.9 -17.0°
Maximum altitude 19:01:57 57° 74° (ENE) 505 0.8 -17.1°
Drops below altitude 10° 19:05:09 10° 355° (N) 1,524 4.0 -17.6°
Sets 19:07:11 0° 351° (N) 2,397 5.1 -17.9°
